Regional Weather Roundup
Issued by NWS

Home | Current Version | Previous Version | Graphics & Text | Print | Product List | Glossary On
Versions: 1 2 3 4 5 6 7 8 9 10 11 12 13 14 15 16 17 18 19 20 21 22 23 24 25 26 27 28 29 30 31 32 33 34 35 36 37 38 39 40 41 42 43 44 45 46 47 48 49 50
000
ASUS43 KTOP 302108
RWRKS

WEATHER ROUNDUP FOR KANSAS
NATIONAL WEATHER SERVICE GOODLAND KS
300 PM CST FRI JAN 30 2015

NOTE:  "FAIR" INDICATES FEW OR NO CLOUDS BELOW 12,000 FEET WITH NO
SIGNIFICANT WEATHER AND/OR OBSTRUCTIONS TO VISIBILITY.

KSZ001>006-013>018-027>032-041>047-302200-
NORTHWEST KANSAS

CITY           SKY/WX    TMP DP  RH WIND       PRES   REMARKS
GOODLAND       CLOUDY    47  31  53 S18       30.17F
HAYS           CLOUDY    45  23  42 S16G22    30.32F
HILL CITY      CLOUDY    46  25  43 S16G24    30.28F
RUSSELL        CLOUDY    44  26  49 S20       30.31F
$$

KSZ061>065-074>080-084>089-302200-
SOUTHWEST KANSAS

CITY           SKY/WX    TMP DP  RH WIND       PRES   REMARKS
DODGE CITY     CLOUDY    41  24  51 S16       30.32F
ELKHART          N/A     39  24  55 S14         N/A  WCI  31
GARDEN CITY    CLOUDY    42  26  53 S20       30.27F
LIBERAL        CLOUDY    45  27  49 S13       30.31F
PRATT          CLOUDY    41  25  52 S12       30.37F
$$

KSZ066>073-081>083-090>101-302200-
SOUTHEAST KANSAS

CITY           SKY/WX    TMP DP  RH WIND       PRES   REMARKS
CHANUTE        MOSUNNY   42  22  44 VRB3      30.45S
COFFEYVILLE    PTSUNNY   44  25  47 E5        30.44F
HUTCHINSON     CLOUDY    43  26  51 S12       30.39F
MEDICINE LODGE   N/A     41  27  57 S6        30.39F
NEWTON         CLOUDY    41  23  48 S9        30.41F
PARSONS        PTSUNNY   43  24  47 SE5       30.45F
WICHITA INTL   CLOUDY    42  25  50 SE8       30.41F
WICHITA JABRA  CLOUDY    42  25  50 S6        30.41F
WICHITA MCCONL CLOUDY    42  25  50 S7        30.41F
WINFIELD       CLOUDY    44  22  41 SE7       30.43F
$$

KSZ007>012-019>026-033>040-048>060-102>105-302200-
NORTHEAST KANSAS

CITY           SKY/WX    TMP DP  RH WIND       PRES   REMARKS
CONCORDIA      CLOUDY    43  27  53 S14       30.36F
EMPORIA        CLOUDY    41  23  48 CALM      30.42F
LAWRENCE       MOSUNNY   40  22  48 VRB3      30.45F
MANHATTAN      PTSUNNY   44  26  49 S7        30.41F
MARYSVILLE     PTSUNNY   41  27  56 SW12      30.39F
OLATHE IND     MOSUNNY   38  21  50 S6        30.45F
OLATHE EXE     MOSUNNY   39  20  46 S3        30.43F
SALINA         CLOUDY    45  26  47 S12       30.39F
TOPEKA BILLARD MOSUNNY   40  22  48 S5        30.45F
TOPEKA FORBES  MOSUNNY   41  22  46 S3        30.44F
$$



USA.gov is the U.S. government's official web portal to all federal, state and local government web resources and services.